When you browse on this site, cookies collect data to enhance your experience and personalize the content and advertising you see.
Visit our Privacy Policy to learn more. By continuing to use the site, you agree to this use of cookies and data.
  • In Österreich
  • Länderverzeichnis
  • Für 7 Tage
  • Wassertemperatur
  • Satellitenkarten
  • Wetterkarte
  • News
  • Widgets
  • user-avatar
    Anmelden

    Stündliche Wetter Jewłach

    Heute, 25 März, Montag

    Zeit Temperatur Niederschläge Wind Luftdruck Luftfeuchtigkeit
    00:00 +8°C° 0.1 mm 6 m/S 758 mmHg 61%
    01:00 +8°C° 0 mm 6 m/S 759 mmHg 61%
    02:00 +8°C° 0 mm 5 m/S 759 mmHg 62%
    03:00 +8°C° 0 mm 6 m/S 758 mmHg 58%
    04:00 +8°C° 0 mm 5 m/S 759 mmHg 56%
    05:00 +7°C° 0 mm 5 m/S 759 mmHg 55%
    06:00 +7°C° 0 mm 4 m/S 760 mmHg 53%
    07:00 +9°C° 0 mm 3 m/S 760 mmHg 51%
    08:00 +9°C° 0 mm 2 m/S 760 mmHg 49%
    09:00 +10°C° 0 mm 1 m/S 760 mmHg 48%
    10:00 +9°C° 0.2 mm 2 m/S 759 mmHg 54%
    11:00 +9°C° 0.2 mm 3 m/S 759 mmHg 61%
    12:00 +8°C° 0.2 mm 4 m/S 759 mmHg 67%
    13:00 +8°C° 0.6 mm 5 m/S 760 mmHg 68%
    14:00 +7°C° 0.6 mm 6 m/S 760 mmHg 68%
    15:00 +7°C° 0.6 mm 6 m/S 760 mmHg 69%
    16:00 +7°C° 0.1 mm 6 m/S 760 mmHg 70%
    17:00 +7°C° 0.1 mm 5 m/S 761 mmHg 70%
    18:00 +7°C° 0.1 mm 5 m/S 761 mmHg 71%
    19:00 +6°C° 0.2 mm 5 m/S 761 mmHg 73%
    20:00 +6°C° 0.2 mm 4 m/S 762 mmHg 75%
    21:00 +6°C° 0.2 mm 4 m/S 762 mmHg 77%
    22:00 +6°C° 0.4 mm 4 m/S 762 mmHg 77%
    23:00 +5°C° 0.4 mm 4 m/S 762 mmHg 77%

    Morgen, 26 März, Dienstag

    Zeit Temperatur Niederschläge Wind Luftdruck Luftfeuchtigkeit
    00:00 +5°C° 0.4 mm 4 m/S 762 mmHg 77%
    01:00 +5°C° 0.2 mm 3 m/S 762 mmHg 77%
    02:00 +5°C° 0.2 mm 3 m/S 762 mmHg 77%
    03:00 +6°C° 0.2 mm 2 m/S 762 mmHg 76%
    04:00 +6°C° 0 mm 2 m/S 762 mmHg 77%
    05:00 +6°C° 0 mm 2 m/S 762 mmHg 78%
    06:00 +6°C° 0 mm 1 m/S 762 mmHg 79%
    07:00 +6°C° 0 mm 2 m/S 762 mmHg 76%
    08:00 +7°C° 0 mm 2 m/S 762 mmHg 72%
    09:00 +7°C° 0 mm 2 m/S 762 mmHg 68%
    10:00 +9°C° 0 mm 2 m/S 762 mmHg 63%
    11:00 +10°C° 0 mm 3 m/S 761 mmHg 58%
    12:00 +11°C° 0 mm 3 m/S 761 mmHg 53%
    13:00 +12°C° 0 mm 3 m/S 760 mmHg 52%
    14:00 +13°C° 0 mm 3 m/S 760 mmHg 51%
    15:00 +13°C° 0 mm 4 m/S 760 mmHg 50%
    16:00 +13°C° 0 mm 3 m/S 759 mmHg 54%
    17:00 +12°C° 0 mm 3 m/S 759 mmHg 58%
    18:00 +12°C° 0 mm 2 m/S 759 mmHg 62%
    19:00 +12°C° 0 mm 2 m/S 760 mmHg 64%
    20:00 +12°C° 0 mm 2 m/S 760 mmHg 65%
    21:00 +11°C° 0 mm 1 m/S 760 mmHg 67%
    22:00 +11°C° 0 mm 1 m/S 760 mmHg 70%
    23:00 +10°C° 0 mm 1 m/S 760 mmHg 72%

    übermorgen, 27 März, Mittwoch

    Zeit Temperatur Niederschläge Wind Luftdruck Luftfeuchtigkeit
    00:00 +10°C° 0 mm 1 m/S 760 mmHg 75%
    01:00 +9°C° 0 mm 1 m/S 759 mmHg 78%
    02:00 +9°C° 0 mm 1 m/S 759 mmHg 80%
    03:00 +8°C° 0 mm 0 m/S 759 mmHg 83%
    04:00 +9°C° 0 mm 1 m/S 759 mmHg 84%
    05:00 +8°C° 0 mm 1 m/S 758 mmHg 85%
    06:00 +7°C° 0 mm 2 m/S 758 mmHg 86%
    07:00 +9°C° 0 mm 3 m/S 758 mmHg 77%
    08:00 +10°C° 0 mm 4 m/S 758 mmHg 68%
    09:00 +12°C° 0 mm 5 m/S 757 mmHg 60%
    10:00 +14°C° 0 mm 5 m/S 757 mmHg 53%
    11:00 +15°C° 0 mm 5 m/S 757 mmHg 46%
    12:00 +17°C° 0 mm 5 m/S 757 mmHg 39%
    13:00 +19°C° 0 mm 5 m/S 756 mmHg 37%
    14:00 +20°C° 0 mm 5 m/S 756 mmHg 35%
    15:00 +21°C° 0 mm 5 m/S 756 mmHg 33%
    16:00 +20°C° 0 mm 4 m/S 756 mmHg 36%
    17:00 +19°C° 0 mm 3 m/S 757 mmHg 40%
    18:00 +18°C° 0 mm 2 m/S 757 mmHg 43%
    19:00 +17°C° 0 mm 2 m/S 758 mmHg 47%
    20:00 +16°C° 0 mm 2 m/S 759 mmHg 51%
    21:00 +15°C° 0 mm 2 m/S 759 mmHg 55%
    22:00 +15°C° 0 mm 2 m/S 760 mmHg 55%
    23:00 +14°C° 0 mm 2 m/S 760 mmHg 54%

    28 März, Donnerstag

    Zeit Temperatur Niederschläge Wind Luftdruck Luftfeuchtigkeit
    00:00 +13°C° 0 mm 2 m/S 760 mmHg 54%
    01:00 +13°C° 0 mm 2 m/S 760 mmHg 55%
    02:00 +12°C° 0 mm 1 m/S 760 mmHg 56%
    03:00 +12°C° 0 mm 1 m/S 761 mmHg 57%
    04:00 +11°C° 0 mm 1 m/S 761 mmHg 59%
    05:00 +11°C° 0 mm 1 m/S 761 mmHg 60%
    06:00 +11°C° 0 mm 1 m/S 762 mmHg 62%
    07:00 +12°C° 0 mm 2 m/S 762 mmHg 57%
    08:00 +14°C° 0 mm 2 m/S 762 mmHg 52%
    09:00 +15°C° 0 mm 2 m/S 762 mmHg 47%
    10:00 +16°C° 0 mm 2 m/S 762 mmHg 44%
    11:00 +16°C° 0 mm 1 m/S 762 mmHg 42%
    12:00 +18°C° 0 mm 1 m/S 762 mmHg 40%
    13:00 +17°C° 0 mm 2 m/S 761 mmHg 42%
    14:00 +17°C° 0 mm 2 m/S 761 mmHg 44%
    15:00 +18°C° 0 mm 3 m/S 761 mmHg 46%
    16:00 +17°C° 0.3 mm 2 m/S 761 mmHg 52%
    17:00 +16°C° 0.3 mm 2 m/S 761 mmHg 59%
    18:00 +15°C° 0.3 mm 2 m/S 761 mmHg 65%
    19:00 +14°C° 1.5 mm 2 m/S 762 mmHg 71%
    20:00 +12°C° 1.5 mm 3 m/S 762 mmHg 76%
    21:00 +11°C° 1.5 mm 3 m/S 763 mmHg 82%
    22:00 +10°C° 1.2 mm 3 m/S 762 mmHg 83%
    23:00 +10°C° 1.2 mm 2 m/S 762 mmHg 85%

    29 März, Freitag

    Zeit Temperatur Niederschläge Wind Luftdruck Luftfeuchtigkeit
    00:00 +10°C° 1.2 mm 2 m/S 762 mmHg 86%
    01:00 +9°C° 0.5 mm 2 m/S 762 mmHg 84%
    02:00 +9°C° 0.5 mm 3 m/S 762 mmHg 83%
    03:00 +9°C° 0.5 mm 3 m/S 762 mmHg 81%
    04:00 +9°C° 0 mm 3 m/S 762 mmHg 79%
    05:00 +9°C° 0 mm 3 m/S 762 mmHg 78%
    06:00 +8°C° 0 mm 2 m/S 763 mmHg 76%
    07:00 +9°C° 0 mm 2 m/S 762 mmHg 67%
    08:00 +12°C° 0 mm 2 m/S 762 mmHg 58%
    09:00 +12°C° 0 mm 3 m/S 762 mmHg 49%
    10:00 +14°C° 0 mm 2 m/S 762 mmHg 46%
    11:00 +15°C° 0 mm 2 m/S 761 mmHg 43%
    12:00 +15°C° 0 mm 1 m/S 760 mmHg 40%
    13:00 +16°C° 0 mm 2 m/S 760 mmHg 41%
    14:00 +16°C° 0 mm 2 m/S 759 mmHg 41%
    15:00 +16°C° 0 mm 2 m/S 759 mmHg 42%
    16:00 +15°C° 0.2 mm 2 m/S 759 mmHg 48%
    17:00 +15°C° 0.2 mm 2 m/S 759 mmHg 54%
    18:00 +13°C° 0.2 mm 3 m/S 760 mmHg 61%
    19:00 +12°C° 1.6 mm 3 m/S 760 mmHg 66%
    20:00 +11°C° 1.6 mm 4 m/S 761 mmHg 71%
    21:00 +10°C° 1.6 mm 4 m/S 761 mmHg 77%
    22:00 +8°C° 0.7 mm 4 m/S 761 mmHg 77%
    23:00 +8°C° 0.7 mm 5 m/S 761 mmHg 77%

    30 März, Samstag

    Zeit Temperatur Niederschläge Wind Luftdruck Luftfeuchtigkeit
    00:00 +7°C° 0.7 mm 5 m/S 761 mmHg 77%
    01:00 +7°C° 0.3 mm 5 m/S 761 mmHg 75%
    02:00 +7°C° 0.3 mm 5 m/S 761 mmHg 73%
    03:00 +7°C° 0.3 mm 6 m/S 761 mmHg 72%
    04:00 +6°C° 0.7 mm 5 m/S 762 mmHg 72%
    05:00 +6°C° 0.7 mm 5 m/S 762 mmHg 73%
    06:00 +6°C° 0.7 mm 5 m/S 762 mmHg 73%
    07:00 +6°C° 1.1 mm 4 m/S 763 mmHg 74%
    08:00 +7°C° 1.1 mm 3 m/S 763 mmHg 76%
    09:00 +7°C° 1.1 mm 2 m/S 763 mmHg 77%
    10:00 +7°C° 0.4 mm 2 m/S 763 mmHg 78%
    11:00 +7°C° 0.4 mm 2 m/S 763 mmHg 79%
    12:00 +8°C° 0.4 mm 2 m/S 762 mmHg 80%
    13:00 +8°C° 0.1 mm 2 m/S 762 mmHg 80%
    14:00 +9°C° 0.1 mm 3 m/S 762 mmHg 79%
    15:00 +9°C° 0.1 mm 3 m/S 762 mmHg 79%
    16:00 +9°C° 0.1 mm 3 m/S 762 mmHg 82%
    17:00 +8°C° 0.1 mm 3 m/S 763 mmHg 84%
    18:00 +8°C° 0.1 mm 3 m/S 763 mmHg 87%
    19:00 +8°C° 0.1 mm 3 m/S 763 mmHg 87%
    20:00 +8°C° 0.1 mm 3 m/S 764 mmHg 87%
    21:00 +7°C° 0.1 mm 4 m/S 764 mmHg 87%
    22:00 +7°C° 0.2 mm 4 m/S 764 mmHg 87%
    23:00 +8°C° 0.2 mm 3 m/S 764 mmHg 86%
    Mehr zeigen